Tracking 28790 objects as of 18-Apr-2024
HD Live streaming from Space Station
objects crossing your sky now

SL-16 DEB

Track SL-16 DEB now!
10-day predictions


NORAD ID: 22369
Int'l Code: 1992-093BJ
Perigee: 848.6 km
Apogee: 992.7 km
Inclination: 70.9 °
Period: 103.3 minutes
Semi major axis: 7291 km
RCS: 0.2271 m2 (medium)
Launch date: December 25, 1992
Source: Commonwealth of Independent States (former USSR) (CIS)
Launch site: TYURATAM MISSILE AND SPACE COMPLEX (TTMTR)

Note: This is SATELLITE DEBRIS
Your satellite tracking list
Your tracking list is empty




NASA's NSSDC Master Catalog

Two Line Element Set (TLE):
1 22369U 92093BJ  24108.91715924  .00000073  00000-0  85994-4 0  9997
2 22369  70.8853 300.2283 0098832  46.3706 314.5548 13.94317127591721
Source of the keplerian elements: AFSPC